ONEWEB-0054 (45158 NORAD) Tracking and Keplerian Element Data

This shows tracking and keplerian element data for the satellite.

Feedback or suggestion? Click here.




ElementValue
Catalog45158
NameONEWEB-0054
Epoch Orbit928
Epoch Day94.13334498
Epoch Year2020
RAAN145.377
Inclination87.4514
Eccentricity0.0025746
Argument of Perigee97.6999
Mean Anonmoly262.7145
Mean Motion14.74136182
Decay Rate-0.0035936
L11 45158U 20008AD 20094.13334498 -.00359360 00000-0 -57178-1 0 9990
L22 45158 87.4514 145.3770 0025746 97.6999 262.7145 14.74136182 9287

Live tracking and technical data element details for ONEWEB-0054 (NORAD 45158). ONEWEB-0054 can be tracked NOW for your location showing map with azimuth and elevation plus other details from your city location.

Track the satellite on the map from your city or location and see movement details for azimuth, elevation, latitude, longitude, range, height, and movement on the map or in text.







IsCatalogInMostPopularTable: catalog: 45158, numindb: 10
Update: records affected: 1



GetName: 45158 ONEWEB-0054

Hit Count: updated at: Mon, 06 Apr 2020 11:35:29 GMT